Data supplied by UK-AIR on 21/3/2020
All Data GMT hour ending 
Status: R =Ratified P=Provisional,P*=As supplied
,,Hartlepool St Abbs Walk,,,,,,,,,,,,,,,,,,,,,,,
Date,time,"Nitric oxide",status,unit,"Nitrogen dioxide",status,unit,"Nitrogen oxides as nitrogen dioxide",status,unit
 
01-01-2019,01:00,0.17902,R,ugm-3,3.15817,R,ugm-3,3.43267,R,ugm-3
01-01-2019,02:00,0.26854,R,ugm-3,2.32038,R,ugm-3,2.73212,R,ugm-3
01-01-2019,03:00,0.23497,R,ugm-3,1.89898,R,ugm-3,2.25926,R,ugm-3
01-01-2019,04:00,0.16783,R,ugm-3,2.05445,R,ugm-3,2.31180,R,ugm-3
01-01-2019,05:00,0.16783,R,ugm-3,2.15954,R,ugm-3,2.41688,R,ugm-3
01-01-2019,06:00,0.26854,R,ugm-3,2.11021,R,ugm-3,2.52196,R,ugm-3
01-01-2019,07:00,0.20140,R,ugm-3,2.42331,R,ugm-3,2.73212,R,ugm-3
01-01-2019,08:00,0.23497,R,ugm-3,2.05660,R,ugm-3,2.41688,R,ugm-3
01-01-2019,09:00,0.33567,R,ugm-3,6.31562,R,ugm-3,6.83031,R,ugm-3
01-01-2019,10:00,0.67134,R,ugm-3,9.63642,R,ugm-3,10.66579,R,ugm-3
01-01-2019,11:00,0.93987,R,ugm-3,7.64845,R,ugm-3,9.08956,R,ugm-3
01-01-2019,12:00,1.04057,R,ugm-3,7.23134,R,ugm-3,8.82686,R,ugm-3
01-01-2019,13:00,1.40980,R,ugm-3,8.76682,R,ugm-3,10.92849,R,ugm-3
01-01-2019,14:00,1.27554,R,ugm-3,6.60836,R,ugm-3,8.56415,R,ugm-3
01-01-2019,15:00,0.67134,R,ugm-3,4.17217,R,ugm-3,5.20154,R,ugm-3
01-01-2019,16:00,0.36923,R,ugm-3,1.74564,R,ugm-3,2.31180,R,ugm-3
01-01-2019,17:00,0.73847,R,ugm-3,5.96071,R,ugm-3,7.09301,R,ugm-3
01-01-2019,18:00,0.73847,R,ugm-3,9.21824,R,ugm-3,10.35054,R,ugm-3
01-01-2019,19:00,0.67134,R,ugm-3,6.48397,R,ugm-3,7.51334,R,ugm-3
01-01-2019,20:00,0.50350,R,ugm-3,5.32271,R,ugm-3,6.09473,R,ugm-3
01-01-2019,21:00,0.50350,R,ugm-3,1.74993,R,ugm-3,2.52196,R,ugm-3
01-01-2019,22:00,0.63777,R,ugm-3,0.49324,R,ugm-3,1.47114,R,ugm-3
01-01-2019,23:00,0.30210,R,ugm-3,0.69268,R,ugm-3,1.15590,R,ugm-3
01-01-2019,24:00,0.30210,R,ugm-3,0.21982,R,ugm-3,0.68303,R,ugm-3
02-01-2019,01:00,0.22389,R,ugm-3,0.49755,R,ugm-3,0.84085,R,ugm-3
02-01-2019,02:00,0.17911,R,ugm-3,0.56621,R,ugm-3,0.84085,R,ugm-3
02-01-2019,03:00,0.16792,R,ugm-3,0.74104,R,ugm-3,0.99850,R,ugm-3
02-01-2019,04:00,0.16792,R,ugm-3,0.84614,R,ugm-3,1.10361,R,ugm-3
02-01-2019,05:00,0.10075,R,ugm-3,2.10529,R,ugm-3,2.25977,R,ugm-3
02-01-2019,06:00,0.16792,R,ugm-3,5.31313,R,ugm-3,5.57060,R,ugm-3
02-01-2019,07:00,0.20150,R,ugm-3,7.04843,R,ugm-3,7.35740,R,ugm-3
02-01-2019,08:00,1.10825,R,ugm-3,16.16867,R,ugm-3,17.86796,R,ugm-3
02-01-2019,09:00,0.50375,R,ugm-3,19.46043,R,ugm-3,20.23284,R,ugm-3
02-01-2019,10:00,1.41050,R,ugm-3,22.48454,R,ugm-3,24.64727,R,ugm-3
02-01-2019,11:00,2.75383,R,ugm-3,30.30472,R,ugm-3,34.52720,R,ugm-3
02-01-2019,12:00,2.61950,R,ugm-3,26.67434,R,ugm-3,30.69085,R,ugm-3
02-01-2019,13:00,2.78741,R,ugm-3,26.20666,R,ugm-3,30.48064,R,ugm-3
02-01-2019,14:00,3.62699,R,ugm-3,26.33825,R,ugm-3,31.89956,R,ugm-3
02-01-2019,15:00,2.92175,R,ugm-3,31.04576,R,ugm-3,35.52571,R,ugm-3
02-01-2019,16:00,2.04858,R,ugm-3,35.16989,R,ugm-3,38.31101,R,ugm-3
02-01-2019,17:00,1.34333,R,ugm-3,38.77380,R,ugm-3,40.83354,R,ugm-3
02-01-2019,18:00,1.17541,R,ugm-3,36.77149,R,ugm-3,38.57377,R,ugm-3
02-01-2019,19:00,1.17541,R,ugm-3,31.77897,R,ugm-3,33.58125,R,ugm-3
02-01-2019,20:00,0.57092,R,ugm-3,25.76889,R,ugm-3,26.64428,R,ugm-3
02-01-2019,21:00,1.17541,R,ugm-3,27.89007,R,ugm-3,29.69234,R,ugm-3
02-01-2019,22:00,0.43658,R,ugm-3,19.82618,R,ugm-3,20.49560,R,ugm-3
02-01-2019,23:00,0.33583,R,ugm-3,14.67283,R,ugm-3,15.18777,R,ugm-3
02-01-2019,24:00,0.33583,R,ugm-3,8.99713,R,ugm-3,9.51206,R,ugm-3
03-01-2019,01:00,0.17920,R,ugm-3,5.12189,R,ugm-3,5.39665,R,ugm-3
03-01-2019,02:00,0.26880,R,ugm-3,4.00329,R,ugm-3,4.41544,R,ugm-3
03-01-2019,03:00,0.23520,R,ugm-3,4.58046,R,ugm-3,4.94109,R,ugm-3
03-01-2019,04:00,0.30240,R,ugm-3,4.84538,R,ugm-3,5.30905,R,ugm-3
03-01-2019,05:00,0.36960,R,ugm-3,4.90003,R,ugm-3,5.46674,R,ugm-3
03-01-2019,06:00,0.36960,R,ugm-3,8.26418,R,ugm-3,8.83089,R,ugm-3
03-01-2019,07:00,0.43680,R,ugm-3,13.68045,R,ugm-3,14.35020,R,ugm-3
03-01-2019,08:00,1.17599,R,ugm-3,34.30887,R,ugm-3,36.11203,R,ugm-3
03-01-2019,09:00,3.66238,R,ugm-3,43.69024,R,ugm-3,49.30580,R,ugm-3
03-01-2019,10:00,7.99675,R,ugm-3,48.50343,R,ugm-3,60.76494,R,ugm-3
03-01-2019,11:00,7.29115,R,ugm-3,40.54418,R,ugm-3,51.72378,R,ugm-3
03-01-2019,12:00,2.51998,R,ugm-3,21.05181,R,ugm-3,24.91573,R,ugm-3
03-01-2019,13:00,3.62878,R,ugm-3,26.65819,R,ugm-3,32.22224,R,ugm-3
03-01-2019,14:00,3.49438,R,ugm-3,27.12709,R,ugm-3,32.48506,R,ugm-3
03-01-2019,15:00,2.18399,R,ugm-3,24.19524,R,ugm-3,27.54397,R,ugm-3
03-01-2019,16:00,1.64639,R,ugm-3,26.49136,R,ugm-3,29.01578,R,ugm-3
03-01-2019,17:00,1.31039,R,ugm-3,30.47582,R,ugm-3,32.48506,R,ugm-3
03-01-2019,18:00,2.08319,R,ugm-3,38.96281,R,ugm-3,42.15699,R,ugm-3
03-01-2019,19:00,1.47839,R,ugm-3,33.63494,R,ugm-3,35.90177,R,ugm-3
03-01-2019,20:00,1.04159,R,ugm-3,28.36486,R,ugm-3,29.96195,R,ugm-3
03-01-2019,21:00,0.90719,R,ugm-3,30.93636,R,ugm-3,32.32737,R,ugm-3
03-01-2019,22:00,0.70560,R,ugm-3,28.09158,R,ugm-3,29.17348,R,ugm-3
03-01-2019,23:00,0.73920,R,ugm-3,26.62081,R,ugm-3,27.75423,R,ugm-3
03-01-2019,24:00,0.70560,R,ugm-3,26.56720,R,ugm-3,27.64910,R,ugm-3
04-01-2019,01:00,0.94126,R,ugm-3,27.01835,R,ugm-3,28.46159,R,ugm-3
04-01-2019,02:00,0.71715,R,ugm-3,27.08157,R,ugm-3,28.18118,R,ugm-3
04-01-2019,03:00,0.57148,R,ugm-3,23.94001,R,ugm-3,24.81626,R,ugm-3
04-01-2019,04:00,0.67233,R,ugm-3,21.47200,R,ugm-3,22.50288,R,ugm-3
04-01-2019,05:00,0.73956,R,ugm-3,21.00087,R,ugm-3,22.13484,R,ugm-3
04-01-2019,06:00,1.00849,R,ugm-3,19.69471,R,ugm-3,21.24104,R,ugm-3
04-01-2019,07:00,1.17657,R,ugm-3,21.43491,R,ugm-3,23.23896,R,ugm-3
04-01-2019,08:00,2.82377,R,ugm-3,27.37411,R,ugm-3,31.70383,R,ugm-3
04-01-2019,09:00,6.92495,R,ugm-3,29.65574,R,ugm-3,40.27385,R,ugm-3
04-01-2019,10:00,8.63938,R,ugm-3,31.65375,R,ugm-3,44.90061,R,ugm-3
04-01-2019,11:00,18.69064,R,ugm-3,34.17072,R,ugm-3,62.82931,R,ugm-3
04-01-2019,12:00,21.07739,R,ugm-3,37.50380,R,ugm-3,69.82202,R,ugm-3
04-01-2019,13:00,12.06824,R,ugm-3,35.28172,R,ugm-3,53.78609,R,ugm-3
04-01-2019,14:00,2.99185,R,ugm-3,24.27724,R,ugm-3,28.86468,R,ugm-3
04-01-2019,15:00,2.72292,R,ugm-3,28.21224,R,ugm-3,32.38733,R,ugm-3
04-01-2019,16:00,1.81528,R,ugm-3,26.55448,R,ugm-3,29.33787,R,ugm-3
04-01-2019,17:00,1.57996,R,ugm-3,25.70602,R,ugm-3,28.12860,R,ugm-3
04-01-2019,18:00,0.73956,R,ugm-3,16.11123,R,ugm-3,17.24520,R,ugm-3
04-01-2019,19:00,0.57148,R,ugm-3,12.89888,R,ugm-3,13.77513,R,ugm-3
04-01-2019,20:00,0.47063,R,ugm-3,9.32056,R,ugm-3,10.04217,R,ugm-3
04-01-2019,21:00,0.33616,R,ugm-3,14.83699,R,ugm-3,15.35243,R,ugm-3
04-01-2019,22:00,0.40340,R,ugm-3,11.00095,R,ugm-3,11.61948,R,ugm-3
04-01-2019,23:00,0.26893,R,ugm-3,6.84325,R,ugm-3,7.25560,R,ugm-3
04-01-2019,24:00,0.20170,R,ugm-3,5.84222,R,ugm-3,6.15149,R,ugm-3
05-01-2019,01:00,0.17937,R,ugm-3,5.47468,R,ugm-3,5.74971,R,ugm-3
05-01-2019,02:00,0.08969,R,ugm-3,3.43852,R,ugm-3,3.57604,R,ugm-3
05-01-2019,03:00,0.06727,R,ugm-3,4.10397,R,ugm-3,4.20711,R,ugm-3
05-01-2019,04:00,0.10090,R,ugm-3,4.21016,R,ugm-3,4.36487,R,ugm-3
05-01-2019,05:00,0.13453,R,ugm-3,3.79047,R,ugm-3,3.99675,R,ugm-3
05-01-2019,06:00,0.30270,R,ugm-3,5.37323,R,ugm-3,5.83736,R,ugm-3
05-01-2019,07:00,0.13453,R,ugm-3,5.57849,R,ugm-3,5.78477,R,ugm-3
05-01-2019,08:00,0.33633,R,ugm-3,7.37263,R,ugm-3,7.88832,R,ugm-3
05-01-2019,09:00,0.47086,R,ugm-3,8.58625,R,ugm-3,9.30822,R,ugm-3
05-01-2019,10:00,0.67266,R,ugm-3,10.27521,R,ugm-3,11.30660,R,ugm-3
05-01-2019,11:00,1.17715,R,ugm-3,12.39405,R,ugm-3,14.19898,R,ugm-3
05-01-2019,12:00,1.34531,R,ugm-3,15.87001,R,ugm-3,17.93279,R,ugm-3
05-01-2019,13:00,1.81617,R,ugm-3,19.72327,R,ugm-3,22.50802,R,ugm-3
05-01-2019,14:00,1.14351,R,ugm-3,18.75628,R,ugm-3,20.50964,R,ugm-3
05-01-2019,15:00,1.41258,R,ugm-3,22.91895,R,ugm-3,25.08487,R,ugm-3
05-01-2019,16:00,2.95968,R,ugm-3,34.85092,R,ugm-3,39.38903,R,ugm-3
05-01-2019,17:00,2.45519,R,ugm-3,48.50872,R,ugm-3,52.27330,R,ugm-3
05-01-2019,18:00,5.61667,R,ugm-3,58.01794,R,ugm-3,66.63005,R,ugm-3
05-01-2019,19:00,15.30290,R,ugm-3,63.41262,R,ugm-3,86.87674,R,ugm-3
05-01-2019,20:00,9.85440,R,ugm-3,55.35917,R,ugm-3,70.46903,R,ugm-3
05-01-2019,21:00,1.54711,R,ugm-3,33.28303,R,ugm-3,35.65523,R,ugm-3
05-01-2019,22:00,1.27805,R,ugm-3,30.96097,R,ugm-3,32.92061,R,ugm-3
05-01-2019,23:00,0.73992,R,ugm-3,25.31765,R,ugm-3,26.45218,R,ugm-3
05-01-2019,24:00,0.57176,R,ugm-3,15.79398,R,ugm-3,16.67066,R,ugm-3
06-01-2019,01:00,0.35893,R,ugm-3,15.58058,R,ugm-3,16.13092,R,ugm-3
06-01-2019,02:00,0.13460,R,ugm-3,7.43828,R,ugm-3,7.64466,R,ugm-3
06-01-2019,03:00,0.16825,R,ugm-3,12.73443,R,ugm-3,12.99241,R,ugm-3
06-01-2019,04:00,0.30284,R,ugm-3,22.52221,R,ugm-3,22.98656,R,ugm-3
06-01-2019,05:00,0.13460,R,ugm-3,14.41665,R,ugm-3,14.62303,R,ugm-3
06-01-2019,06:00,0.13460,R,ugm-3,9.26177,R,ugm-3,9.46815,R,ugm-3
06-01-2019,07:00,0.26919,R,ugm-3,12.21144,R,ugm-3,12.62420,R,ugm-3
06-01-2019,08:00,0.30284,R,ugm-3,16.99912,R,ugm-3,17.46348,R,ugm-3
06-01-2019,09:00,0.84123,R,ugm-3,20.01347,R,ugm-3,21.30334,R,ugm-3
06-01-2019,10:00,4.81184,R,ugm-3,32.80898,R,ugm-3,40.18704,R,ugm-3
06-01-2019,11:00,4.07156,R,ugm-3,25.37013,R,ugm-3,31.61310,R,ugm-3
06-01-2019,12:00,3.53317,R,ugm-3,22.14538,R,ugm-3,27.56284,R,ugm-3
06-01-2019,13:00,2.99478,R,ugm-3,17.81602,R,ugm-3,22.40795,R,ugm-3
06-01-2019,14:00,3.16303,R,ugm-3,20.45109,R,ugm-3,25.30100,R,ugm-3
06-01-2019,15:00,3.19668,R,ugm-3,23.81855,R,ugm-3,28.72006,R,ugm-3
06-01-2019,16:00,9.85923,R,ugm-3,39.90320,R,ugm-3,55.02047,R,ugm-3
06-01-2019,17:00,5.31658,R,ugm-3,43.23904,R,ugm-3,51.39101,R,ugm-3
06-01-2019,18:00,10.26302,R,ugm-3,38.65285,R,ugm-3,54.38926,R,ugm-3
06-01-2019,19:00,3.73507,R,ugm-3,34.51262,R,ugm-3,40.23964,R,ugm-3
06-01-2019,20:00,8.84975,R,ugm-3,43.76548,R,ugm-3,57.33491,R,ugm-3
06-01-2019,21:00,0.97583,R,ugm-3,34.32492,R,ugm-3,35.82117,R,ugm-3
06-01-2019,22:00,1.68246,R,ugm-3,35.29286,R,ugm-3,37.87260,R,ugm-3
06-01-2019,23:00,0.30284,R,ugm-3,14.94769,R,ugm-3,15.41204,R,ugm-3
06-01-2019,24:00,0.13460,R,ugm-3,7.36814,R,ugm-3,7.57452,R,ugm-3
07-01-2019,01:00,0.00000,R,ugm-3,4.77023,R,ugm-3,4.77023,R,ugm-3
07-01-2019,02:00,0.04489,R,ugm-3,3.57900,R,ugm-3,3.64782,R,ugm-3
07-01-2019,03:00,0.00000,R,ugm-3,3.89335,R,ugm-3,3.89335,R,ugm-3
07-01-2019,04:00,0.03367,R,ugm-3,2.15812,R,ugm-3,2.20974,R,ugm-3
07-01-2019,05:00,-0.03367,R,ugm-3,2.89271,R,ugm-3,2.84109,R,ugm-3
07-01-2019,06:00,0.03367,R,ugm-3,4.15741,R,ugm-3,4.20903,R,ugm-3
07-01-2019,07:00,0.30299,R,ugm-3,8.16393,R,ugm-3,8.62851,R,ugm-3
07-01-2019,08:00,0.53865,R,ugm-3,12.43251,R,ugm-3,13.25844,R,ugm-3
07-01-2019,09:00,0.84164,R,ugm-3,14.59857,R,ugm-3,15.88908,R,ugm-3
07-01-2019,10:00,1.00997,R,ugm-3,9.65793,R,ugm-3,11.20653,R,ugm-3
07-01-2019,11:00,1.21197,R,ugm-3,8.08550,R,ugm-3,9.94383,R,ugm-3
07-01-2019,12:00,1.31296,R,ugm-3,9.19335,R,ugm-3,11.20653,R,ugm-3
07-01-2019,13:00,0.80798,R,ugm-3,8.65233,R,ugm-3,9.89121,R,ugm-3
07-01-2019,14:00,0.87531,R,ugm-3,10.33793,R,ugm-3,11.68005,R,ugm-3
07-01-2019,15:00,1.17830,R,ugm-3,11.03083,R,ugm-3,12.83753,R,ugm-3
07-01-2019,16:00,1.17830,R,ugm-3,12.97750,R,ugm-3,14.78421,R,ugm-3
07-01-2019,17:00,1.11097,R,ugm-3,11.71281,R,ugm-3,13.41627,R,ugm-3
07-01-2019,18:00,1.21197,R,ugm-3,10.87398,R,ugm-3,12.73231,R,ugm-3
07-01-2019,19:00,0.84164,R,ugm-3,8.39026,R,ugm-3,9.68076,R,ugm-3
07-01-2019,20:00,0.53865,R,ugm-3,5.69807,R,ugm-3,6.52399,R,ugm-3
07-01-2019,21:00,0.20199,R,ugm-3,2.84705,R,ugm-3,3.15677,R,ugm-3
07-01-2019,22:00,0.20199,R,ugm-3,2.37354,R,ugm-3,2.68326,R,ugm-3
07-01-2019,23:00,0.06733,R,ugm-3,2.00127,R,ugm-3,2.10451,R,ugm-3
07-01-2019,24:00,0.13466,R,ugm-3,1.52974,R,ugm-3,1.73622,R,ugm-3
08-01-2019,01:00,0.17964,R,ugm-3,1.47872,R,ugm-3,1.75416,R,ugm-3
08-01-2019,02:00,0.17964,R,ugm-3,0.98755,R,ugm-3,1.26300,R,ugm-3
08-01-2019,03:00,0.03368,R,ugm-3,1.10610,R,ugm-3,1.15775,R,ugm-3
08-01-2019,04:00,0.06736,R,ugm-3,1.42283,R,ugm-3,1.52612,R,ugm-3
08-01-2019,05:00,0.20209,R,ugm-3,1.90037,R,ugm-3,2.21024,R,ugm-3
08-01-2019,06:00,0.26946,R,ugm-3,2.53383,R,ugm-3,2.94699,R,ugm-3
08-01-2019,07:00,0.40419,R,ugm-3,5.58999,R,ugm-3,6.20973,R,ugm-3
08-01-2019,08:00,0.67364,R,ugm-3,12.28118,R,ugm-3,13.31408,R,ugm-3
08-01-2019,09:00,1.68411,R,ugm-3,19.83591,R,ugm-3,22.41818,R,ugm-3
08-01-2019,10:00,1.91989,R,ugm-3,16.42216,R,ugm-3,19.36594,R,ugm-3
08-01-2019,11:00,2.22303,R,ugm-3,13.16823,R,ugm-3,16.57682,R,ugm-3
08-01-2019,12:00,1.98725,R,ugm-3,11.58263,R,ugm-3,14.62971,R,ugm-3
08-01-2019,13:00,2.39144,R,ugm-3,12.75213,R,ugm-3,16.41895,R,ugm-3
08-01-2019,14:00,2.76194,R,ugm-3,14.71002,R,ugm-3,18.94494,R,ugm-3
08-01-2019,15:00,2.59353,R,ugm-3,11.60026,R,ugm-3,15.57695,R,ugm-3
08-01-2019,16:00,1.27992,R,ugm-3,16.82454,R,ugm-3,18.78707,R,ugm-3
08-01-2019,17:00,1.38097,R,ugm-3,27.93132,R,ugm-3,30.04878,R,ugm-3
08-01-2019,18:00,2.25671,R,ugm-3,27.43054,R,ugm-3,30.89078,R,ugm-3
08-01-2019,19:00,0.84206,R,ugm-3,20.86392,R,ugm-3,22.15506,R,ugm-3
08-01-2019,20:00,0.77469,R,ugm-3,17.38872,R,ugm-3,18.57657,R,ugm-3
08-01-2019,21:00,0.87574,R,ugm-3,15.39192,R,ugm-3,16.73470,R,ugm-3
08-01-2019,22:00,0.33682,R,ugm-3,9.90326,R,ugm-3,10.41972,R,ugm-3
08-01-2019,23:00,0.33682,R,ugm-3,6.37740,R,ugm-3,6.89385,R,ugm-3
08-01-2019,24:00,0.23578,R,ugm-3,3.79584,R,ugm-3,4.15736,R,ugm-3
09-01-2019,01:00,0.22466,R,ugm-3,3.44538,R,ugm-3,3.78985,R,ugm-3
09-01-2019,02:00,0.17973,R,ugm-3,3.37391,R,ugm-3,3.64949,R,ugm-3
09-01-2019,03:00,0.16849,R,ugm-3,1.53130,R,ugm-3,1.78965,R,ugm-3
09-01-2019,04:00,0.13479,R,ugm-3,0.58287,R,ugm-3,0.78955,R,ugm-3
09-01-2019,05:00,0.06740,R,ugm-3,0.73885,R,ugm-3,0.84219,R,ugm-3
09-01-2019,06:00,0.23589,R,ugm-3,1.37532,R,ugm-3,1.73702,R,ugm-3
09-01-2019,07:00,0.53918,R,ugm-3,6.22661,R,ugm-3,7.05334,R,ugm-3
09-01-2019,08:00,1.44905,R,ugm-3,10.56892,R,ugm-3,12.79075,R,ugm-3
09-01-2019,09:00,2.08932,R,ugm-3,19.74608,R,ugm-3,22.94966,R,ugm-3
09-01-2019,10:00,2.59480,R,ugm-3,16.86555,R,ugm-3,20.84419,R,ugm-3
09-01-2019,11:00,2.19042,R,ugm-3,18.95943,R,ugm-3,22.31802,R,ugm-3
09-01-2019,12:00,2.22412,R,ugm-3,23.27662,R,ugm-3,26.68688,R,ugm-3
09-01-2019,13:00,2.35891,R,ugm-3,20.91182,R,ugm-3,24.52877,R,ugm-3
09-01-2019,14:00,3.23508,R,ugm-3,21.41068,R,ugm-3,26.37106,R,ugm-3
09-01-2019,15:00,3.30247,R,ugm-3,25.72883,R,ugm-3,30.79255,R,ugm-3
09-01-2019,16:00,1.61754,R,ugm-3,24.94360,R,ugm-3,27.42380,R,ugm-3
09-01-2019,17:00,1.81973,R,ugm-3,33.05547,R,ugm-3,35.84569,R,ugm-3
09-01-2019,18:00,1.38165,R,ugm-3,34.56938,R,ugm-3,36.68788,R,ugm-3
09-01-2019,19:00,2.15672,R,ugm-3,42.75031,R,ugm-3,46.05724,R,ugm-3
09-01-2019,20:00,0.74137,R,ugm-3,27.28714,R,ugm-3,28.42389,R,ugm-3
09-01-2019,21:00,0.57288,R,ugm-3,18.49196,R,ugm-3,19.37036,R,ugm-3
09-01-2019,22:00,0.40439,R,ugm-3,15.96056,R,ugm-3,16.58060,R,ugm-3
09-01-2019,23:00,0.23589,R,ugm-3,13.69234,R,ugm-3,14.05404,R,ugm-3
09-01-2019,24:00,0.30329,R,ugm-3,16.85249,R,ugm-3,17.31752,R,ugm-3
10-01-2019,01:00,0.40458,R,ugm-3,24.93189,R,ugm-3,25.55224,R,ugm-3
10-01-2019,02:00,0.35963,R,ugm-3,23.31605,R,ugm-3,23.86748,R,ugm-3
10-01-2019,03:00,0.26972,R,ugm-3,11.01123,R,ugm-3,11.42480,R,ugm-3
10-01-2019,04:00,0.20229,R,ugm-3,7.58715,R,ugm-3,7.89733,R,ugm-3
10-01-2019,05:00,0.26972,R,ugm-3,7.69436,R,ugm-3,8.10792,R,ugm-3
10-01-2019,06:00,0.37087,R,ugm-3,9.32933,R,ugm-3,9.89798,R,ugm-3
10-01-2019,07:00,0.97774,R,ugm-3,17.87559,R,ugm-3,19.37477,R,ugm-3
10-01-2019,08:00,5.05728,R,ugm-3,36.36534,R,ugm-3,44.11973,R,ugm-3
10-01-2019,09:00,23.80294,R,ugm-3,48.31996,R,ugm-3,84.81729,R,ugm-3
10-01-2019,10:00,30.74827,R,ugm-3,48.51626,R,ugm-3,95.66295,R,ugm-3
10-01-2019,11:00,28.05105,R,ugm-3,47.43970,R,ugm-3,90.45071,R,ugm-3
10-01-2019,12:00,25.32012,R,ugm-3,49.15257,R,ugm-3,87.97622,R,ugm-3
10-01-2019,13:00,5.36072,R,ugm-3,30.47725,R,ugm-3,38.69690,R,ugm-3
10-01-2019,14:00,6.40589,R,ugm-3,25.50515,R,ugm-3,35.32738,R,ugm-3
10-01-2019,15:00,1.44975,R,ugm-3,16.09887,R,ugm-3,18.32180,R,ugm-3
10-01-2019,16:00,1.34861,R,ugm-3,17.46488,R,ugm-3,19.53272,R,ugm-3
10-01-2019,17:00,1.38232,R,ugm-3,20.88801,R,ugm-3,23.00755,R,ugm-3
10-01-2019,18:00,1.65205,R,ugm-3,22.15921,R,ugm-3,24.69231,R,ugm-3
10-01-2019,19:00,0.84288,R,ugm-3,15.29199,R,ugm-3,16.58439,R,ugm-3
10-01-2019,20:00,0.57316,R,ugm-3,13.17841,R,ugm-3,14.05724,R,ugm-3
10-01-2019,21:00,0.80917,R,ugm-3,12.23740,R,ugm-3,13.47811,R,ugm-3
10-01-2019,22:00,0.64059,R,ugm-3,10.07403,R,ugm-3,11.05626,R,ugm-3
10-01-2019,23:00,0.30344,R,ugm-3,7.48471,R,ugm-3,7.94998,R,ugm-3
10-01-2019,24:00,0.26972,R,ugm-3,6.69403,R,ugm-3,7.10759,R,ugm-3
11-01-2019,01:00,0.13493,R,ugm-3,6.25285,R,ugm-3,6.45973,R,ugm-3
11-01-2019,02:00,0.08995,R,ugm-3,5.19838,R,ugm-3,5.33630,R,ugm-3
11-01-2019,03:00,0.13493,R,ugm-3,4.11131,R,ugm-3,4.31819,R,ugm-3
11-01-2019,04:00,0.06746,R,ugm-3,3.74080,R,ugm-3,3.84424,R,ugm-3
11-01-2019,05:00,0.33732,R,ugm-3,5.06484,R,ugm-3,5.58205,R,ugm-3
11-01-2019,06:00,0.30359,R,ugm-3,5.32720,R,ugm-3,5.79269,R,ugm-3
11-01-2019,07:00,0.37105,R,ugm-3,8.48873,R,ugm-3,9.05767,R,ugm-3
11-01-2019,08:00,0.84329,R,ugm-3,17.19093,R,ugm-3,18.48396,R,ugm-3
11-01-2019,09:00,2.12510,R,ugm-3,30.33918,R,ugm-3,33.59762,R,ugm-3
11-01-2019,10:00,2.42868,R,ugm-3,30.76893,R,ugm-3,34.49285,R,ugm-3
11-01-2019,11:00,2.46242,R,ugm-3,27.92618,R,ugm-3,31.70183,R,ugm-3
11-01-2019,12:00,4.52005,R,ugm-3,34.25014,R,ugm-3,41.18078,R,ugm-3
11-01-2019,13:00,3.13705,R,ugm-3,27.41837,R,ugm-3,32.22844,R,ugm-3
11-01-2019,14:00,2.39495,R,ugm-3,25.87053,R,ugm-3,29.54274,R,ugm-3
11-01-2019,15:00,1.41673,R,ugm-3,22.15702,R,ugm-3,24.32931,R,ugm-3
11-01-2019,16:00,2.05763,R,ugm-3,34.12889,R,ugm-3,37.28388,R,ugm-3
11-01-2019,17:00,3.44063,R,ugm-3,48.33318,R,ugm-3,53.60874,R,ugm-3
11-01-2019,18:00,2.32749,R,ugm-3,43.87866,R,ugm-3,47.44742,R,ugm-3
11-01-2019,19:00,1.82151,R,ugm-3,39.86234,R,ugm-3,42.65529,R,ugm-3
11-01-2019,20:00,1.78778,R,ugm-3,39.91406,R,ugm-3,42.65529,R,ugm-3
11-01-2019,21:00,1.01195,R,ugm-3,25.83200,R,ugm-3,27.38364,R,ugm-3
11-01-2019,22:00,0.43851,R,ugm-3,15.23120,R,ugm-3,15.90358,R,ugm-3
11-01-2019,23:00,0.23612,R,ugm-3,9.64351,R,ugm-3,10.00556,R,ugm-3
11-01-2019,24:00,0.16866,R,ugm-3,6.00804,R,ugm-3,6.26664,R,ugm-3
12-01-2019,01:00,0.31498,R,ugm-3,4.29270,R,ugm-3,4.77567,R,ugm-3
12-01-2019,02:00,0.04500,R,ugm-3,2.45930,R,ugm-3,2.52830,R,ugm-3
12-01-2019,03:00,0.13499,R,ugm-3,1.63657,R,ugm-3,1.84355,R,ugm-3
12-01-2019,04:00,0.13499,R,ugm-3,2.37398,R,ugm-3,2.58097,R,ugm-3
12-01-2019,05:00,0.16874,R,ugm-3,1.58482,R,ugm-3,1.84355,R,ugm-3
12-01-2019,06:00,0.03375,R,ugm-3,2.16051,R,ugm-3,2.21226,R,ugm-3
12-01-2019,07:00,0.16874,R,ugm-3,2.90164,R,ugm-3,3.16037,R,ugm-3
12-01-2019,08:00,0.53997,R,ugm-3,5.86151,R,ugm-3,6.68945,R,ugm-3
12-01-2019,09:00,0.97870,R,ugm-3,9.24461,R,ugm-3,10.74526,R,ugm-3
12-01-2019,10:00,0.74246,R,ugm-3,8.44804,R,ugm-3,9.58646,R,ugm-3
12-01-2019,11:00,1.11369,R,ugm-3,9.51168,R,ugm-3,11.21932,R,ugm-3
12-01-2019,12:00,1.18119,R,ugm-3,11.25174,R,ugm-3,13.06287,R,ugm-3
12-01-2019,13:00,1.14744,R,ugm-3,10.46072,R,ugm-3,12.22010,R,ugm-3
12-01-2019,14:00,0.80996,R,ugm-3,7.60712,R,ugm-3,8.84904,R,ugm-3
12-01-2019,15:00,0.91120,R,ugm-3,8.24198,R,ugm-3,9.63913,R,ugm-3
12-01-2019,16:00,0.57372,R,ugm-3,8.70677,R,ugm-3,9.58646,R,ugm-3
12-01-2019,17:00,0.57372,R,ugm-3,10.65566,R,ugm-3,11.53536,R,ugm-3
12-01-2019,18:00,0.47248,R,ugm-3,10.44219,R,ugm-3,11.16664,R,ugm-3
12-01-2019,19:00,0.40498,R,ugm-3,6.12117,R,ugm-3,6.74213,R,ugm-3
12-01-2019,20:00,0.20249,R,ugm-3,3.32395,R,ugm-3,3.63443,R,ugm-3
12-01-2019,21:00,0.26999,R,ugm-3,3.11511,R,ugm-3,3.52908,R,ugm-3
12-01-2019,22:00,0.13499,R,ugm-3,2.95339,R,ugm-3,3.16037,R,ugm-3
12-01-2019,23:00,0.10125,R,ugm-3,2.16237,R,ugm-3,2.31761,R,ugm-3
12-01-2019,24:00,0.30373,R,ugm-3,1.64120,R,ugm-3,2.10691,R,ugm-3
13-01-2019,01:00,0.31514,R,ugm-3,0.92173,R,ugm-3,1.40493,R,ugm-3
13-01-2019,02:00,0.27012,R,ugm-3,0.92051,R,ugm-3,1.33468,R,ugm-3
13-01-2019,03:00,0.10129,R,ugm-3,0.74033,R,ugm-3,0.89564,R,ugm-3
13-01-2019,04:00,0.13506,R,ugm-3,0.74124,R,ugm-3,0.94833,R,ugm-3
13-01-2019,05:00,0.27012,R,ugm-3,0.95563,R,ugm-3,1.36981,R,ugm-3
13-01-2019,06:00,0.16882,R,ugm-3,1.00558,R,ugm-3,1.26444,R,ugm-3
13-01-2019,07:00,0.23635,R,ugm-3,1.27083,R,ugm-3,1.63323,R,ugm-3
13-01-2019,08:00,0.40518,R,ugm-3,2.01298,R,ugm-3,2.63424,R,ugm-3
13-01-2019,09:00,0.33765,R,ugm-3,2.27458,R,ugm-3,2.79230,R,ugm-3
13-01-2019,10:00,0.40518,R,ugm-3,2.43446,R,ugm-3,3.05572,R,ugm-3
13-01-2019,11:00,0.54024,R,ugm-3,2.75422,R,ugm-3,3.58257,R,ugm-3
13-01-2019,12:00,0.57400,R,ugm-3,2.96587,R,ugm-3,3.84599,R,ugm-3
13-01-2019,13:00,0.67529,R,ugm-3,4.44379,R,ugm-3,5.47923,R,ugm-3
13-01-2019,14:00,0.87788,R,ugm-3,4.50195,R,ugm-3,5.84802,R,ugm-3
13-01-2019,15:00,0.67529,R,ugm-3,5.18138,R,ugm-3,6.21681,R,ugm-3
13-01-2019,16:00,0.67529,R,ugm-3,4.70721,R,ugm-3,5.74265,R,ugm-3
13-01-2019,17:00,0.47271,R,ugm-3,4.38563,R,ugm-3,5.11043,R,ugm-3
13-01-2019,18:00,0.40518,R,ugm-3,4.75259,R,ugm-3,5.37386,R,ugm-3
13-01-2019,19:00,0.54024,R,ugm-3,5.28309,R,ugm-3,6.11144,R,ugm-3
13-01-2019,20:00,0.27012,R,ugm-3,4.01135,R,ugm-3,4.42553,R,ugm-3
13-01-2019,21:00,0.43894,R,ugm-3,3.38370,R,ugm-3,4.05673,R,ugm-3
13-01-2019,22:00,0.37141,R,ugm-3,2.74966,R,ugm-3,3.31915,R,ugm-3
13-01-2019,23:00,0.37141,R,ugm-3,1.90670,R,ugm-3,2.47619,R,ugm-3
13-01-2019,24:00,0.33765,R,ugm-3,1.58968,R,ugm-3,2.10739,R,ugm-3
14-01-2019,01:00,0.09008,R,ugm-3,1.33739,R,ugm-3,1.47551,R,ugm-3
14-01-2019,02:00,0.22521,R,ugm-3,1.13020,R,ugm-3,1.47551,R,ugm-3
14-01-2019,03:00,0.10134,R,ugm-3,1.32012,R,ugm-3,1.47551,R,ugm-3
14-01-2019,04:00,0.10134,R,ugm-3,1.84709,R,ugm-3,2.00248,R,ugm-3
14-01-2019,05:00,0.13513,R,ugm-3,3.42889,R,ugm-3,3.63608,R,ugm-3
14-01-2019,06:00,0.43916,R,ugm-3,3.80587,R,ugm-3,4.47923,R,ugm-3
14-01-2019,07:00,0.47294,R,ugm-3,11.60591,R,ugm-3,12.33106,R,ugm-3
14-01-2019,08:00,0.74319,R,ugm-3,23.78608,R,ugm-3,24.92561,R,ugm-3
14-01-2019,09:00,2.09443,R,ugm-3,35.62617,R,ugm-3,38.83758,R,ugm-3
14-01-2019,10:00,3.00652,R,ugm-3,30.90774,R,ugm-3,35.51768,R,ugm-3
14-01-2019,11:00,4.96583,R,ugm-3,32.96241,R,ugm-3,40.57658,R,ugm-3
14-01-2019,12:00,3.98618,R,ugm-3,22.13346,R,ugm-3,28.24552,R,ugm-3
14-01-2019,13:00,2.80384,R,ugm-3,17.83352,R,ugm-3,22.13268,R,ugm-3
14-01-2019,14:00,3.07409,R,ugm-3,19.68511,R,ugm-3,24.39864,R,ugm-3
14-01-2019,15:00,2.90518,R,ugm-3,24.21254,R,ugm-3,28.66709,R,ugm-3
14-01-2019,16:00,17.39730,R,ugm-3,55.47890,R,ugm-3,82.15440,R,ugm-3
14-01-2019,17:00,35.19998,R,ugm-3,70.02315,R,ugm-3,123.99570,R,ugm-3
14-01-2019,18:00,12.16122,R,ugm-3,51.80875,R,ugm-3,70.45570,R,ugm-3
14-01-2019,19:00,2.80384,R,ugm-3,42.91723,R,ugm-3,47.21638,R,ugm-3
14-01-2019,20:00,1.11478,R,ugm-3,32.01668,R,ugm-3,33.72599,R,ugm-3
14-01-2019,21:00,0.77697,R,ugm-3,22.46956,R,ugm-3,23.66089,R,ugm-3
14-01-2019,22:00,0.27025,R,ugm-3,16.39592,R,ugm-3,16.81030,R,ugm-3
14-01-2019,23:00,0.27025,R,ugm-3,14.34074,R,ugm-3,14.75512,R,ugm-3
14-01-2019,24:00,0.16891,R,ugm-3,9.01566,R,ugm-3,9.27465,R,ugm-3
15-01-2019,01:00,0.09013,R,ugm-3,5.06241,R,ugm-3,5.20061,R,ugm-3
15-01-2019,02:00,-0.09013,R,ugm-3,2.87906,R,ugm-3,2.74086,R,ugm-3
15-01-2019,03:00,0.06760,R,ugm-3,2.42638,R,ugm-3,2.53003,R,ugm-3
15-01-2019,04:00,0.10139,R,ugm-3,1.53122,R,ugm-3,1.68668,R,ugm-3
15-01-2019,05:00,0.20279,R,ugm-3,1.95555,R,ugm-3,2.26648,R,ugm-3
15-01-2019,06:00,0.10139,R,ugm-3,2.53269,R,ugm-3,2.68815,R,ugm-3
15-01-2019,07:00,0.33798,R,ugm-3,4.64725,R,ugm-3,5.16547,R,ugm-3
15-01-2019,08:00,0.47317,R,ugm-3,9.76355,R,ugm-3,10.48906,R,ugm-3
15-01-2019,09:00,0.64216,R,ugm-3,12.71968,R,ugm-3,13.70430,R,ugm-3
15-01-2019,10:00,1.41950,R,ugm-3,18.53804,R,ugm-3,20.71458,R,ugm-3
15-01-2019,11:00,2.12925,R,ugm-3,18.82020,R,ugm-3,22.08501,R,ugm-3
15-01-2019,12:00,2.16305,R,ugm-3,14.65709,R,ugm-3,17.97372,R,ugm-3
15-01-2019,13:00,2.56862,R,ugm-3,10.81998,R,ugm-3,14.75848,R,ugm-3
15-01-2019,14:00,0.98013,R,ugm-3,10.93644,R,ugm-3,12.43929,R,ugm-3
15-01-2019,15:00,1.08153,R,ugm-3,12.09870,R,ugm-3,13.75701,R,ugm-3
15-01-2019,16:00,0.87874,R,ugm-3,12.62047,R,ugm-3,13.96785,R,ugm-3
15-01-2019,17:00,0.91254,R,ugm-3,13.51740,R,ugm-3,14.91661,R,ugm-3
15-01-2019,18:00,0.50697,R,ugm-3,10.23882,R,ugm-3,11.01615,R,ugm-3
15-01-2019,19:00,0.40557,R,ugm-3,9.55094,R,ugm-3,10.17281,R,ugm-3
15-01-2019,20:00,0.33798,R,ugm-3,8.28416,R,ugm-3,8.80238,R,ugm-3
15-01-2019,21:00,0.23658,R,ugm-3,8.22879,R,ugm-3,8.59155,R,ugm-3
15-01-2019,22:00,0.33798,R,ugm-3,4.96350,R,ugm-3,5.48172,R,ugm-3